SCP
0 0 0 0 0 0 0 0 1 3 8 6 5 4 4 3 4 7 4 5 3 4
0 0 0 0 0 0 0 0 0 0 1 5 5 5 6 5 5 7 6 3 4 3
0 0 0 0 0 0 0 0 1 0 0 1 4 5 5 5 4 6 6 5 4 4
0 0 0 0 0 0 0 0 0 1 1 1 1 3 5 4 3 3 5 5 4 3
0 0 0 0 0 0 0 0 0 0 0 1 0 3 3 3 3 2 4 5 3 3
0 0 0 0 0 0 0 0 0 0 0 0 0 1 3 3 3 3 4 4 3 3
0 0 0 0 0 0 0 0 0 0 0 1 0 1 2 3 2 2 3 3 3 3
0 0 0 0 0 0 0 0 0 0 0 0 1 1 1 3 2 2 2 2 3 3
0 0 0 0 0 0 0 0 0 0 0 0 1 0 1 3 2 2 2 3 3 2
0 0 0 0 0 0 0 0 0 0 0 0 0 1 0 1 3 2 2 3 3 1
0 0 0 0 0 0 0 0 0 0 0 0 0 0 0 1 3 2 2 3 2 1
0 0 0 0 0 0 0 0 -0 -0 0 0 0 0 0 1 2 2 1 2 1 2
0 0 0 0 0 0 0 -0 -0 -0 -0 0 1 0 0 1 3 2 2 1 1 1
0 0 0 0 0 0 0 0 0 0 0 0 1 0 0 2 3 2 2 1 1 0
Wind_Speed_500mb
36 37 37 37 36 43 48 49 49 58 48 52 68 69 69 60 70 87 98 89 71 63
37 40 43 41 39 47 57 53 63 65 63 51 60 69 72 73 68 84 86 88 67 63
36 36 40 45 52 53 53 53 61 66 67 62 59 70 61 68 67 84 79 74 60 67
44 46 41 49 54 57 56 58 63 63 65 69 61 65 68 65 70 78 78 75 61 57
41 46 52 55 53 56 64 64 67 67 65 65 72 63 72 71 68 75 79 70 57 58
48 43 49 57 48 58 62 66 72 72 65 65 64 72 75 77 73 77 74 69 66 58
52 57 58 56 62 63 67 74 73 71 66 62 67 67 71 82 75 70 69 67 59 56
57 58 65 63 67 64 70 71 74 79 73 68 64 73 73 80 75 68 67 62 62 60
71 70 66 69 73 78 76 73 75 78 75 79 66 81 68 78 71 65 67 67 60 54
70 73 72 70 71 80 80 74 78 86 84 88 69 71 76 81 75 70 69 71 60 62
70 72 71 69 80 86 82 80 79 79 86 84 74 79 81 76 76 71 70 73 63 65
89 89 90 96 98 84 72 83 86 92 88 84 77 84 78 78 82 71 67 63 66 64
80 84 81 81 85 79 88 92 92 96 95 83 80 91 82 88 93 73 67 63 62 61
80 82 84 87 85 86 90 83 85 85 84 77 83 92 91 97 86 79 75 70 63 60
Wind_Direction_500mb
271 279 277 272 272 278 270 266 261 247 256 261 254 264 265 257 237 242 247 249 247 231
278 278 278 275 267 260 265 271 271 259 247 251 256 260 261 258 247 241 246 248 243 239
273 275 277 277 278 277 275 270 267 261 252 246 253 259 255 256 247 241 242 245 238 241
270 269 275 277 275 275 274 269 268 266 268 253 246 253 251 256 244 238 239 239 236 230
270 274 282 271 273 270 271 268 269 269 258 264 246 248 248 250 239 234 233 231 223 223
272 275 281 284 276 273 268 269 272 267 259 261 258 235 246 245 242 230 230 225 221 221
269 274 279 283 281 272 274 274 267 272 265 255 254 241 240 240 236 230 226 220 220 218
277 272 276 279 282 280 274 270 269 268 266 254 260 239 239 235 232 226 221 219 214 216
275 273 270 273 278 281 271 267 267 265 265 252 251 243 234 235 229 219 214 211 214 217
275 272 271 271 276 274 267 265 262 267 265 259 245 242 235 231 223 213 209 209 209 205
276 273 269 266 268 270 266 264 262 262 262 259 242 235 234 226 216 211 207 208 209 208
276 269 267 266 268 256 257 259 262 262 259 256 241 232 230 218 211 204 199 206 204 203
273 273 268 262 256 255 258 262 258 262 254 243 240 230 224 208 202 194 189 190 199 201
276 271 272 265 256 259 268 257 259 259 245 239 230 227 214 198 191 189 184 188 190 198
Wind_Speed_850mb
36 37 37 37 36 43 48 49 49 58 48 52 68 69 69 60 70 87 98 89 71 63
37 40 43 41 39 47 57 53 63 65 63 51 60 69 72 73 68 84 86 88 67 63
36 36 40 45 52 53 53 53 61 66 67 62 59 70 61 68 67 84 79 74 60 67
44 46 41 49 54 57 56 58 63 63 65 69 61 65 68 65 70 78 78 75 61 57
41 46 52 55 53 56 64 64 67 67 65 65 72 63 72 71 68 75 79 70 57 58
48 43 49 57 48 58 62 66 72 72 65 65 64 72 75 77 73 77 74 69 66 58
52 57 58 56 62 63 67 74 73 71 66 62 67 67 71 82 75 70 69 67 59 56
57 58 65 63 67 64 70 71 74 79 73 68 64 73 73 80 75 68 67 62 62 60
71 70 66 69 73 78 76 73 75 78 75 79 66 81 68 78 71 65 67 67 60 54
70 73 72 70 71 80 80 74 78 86 84 88 69 71 76 81 75 70 69 71 60 62
70 72 71 69 80 86 82 80 79 79 86 84 74 79 81 76 76 71 70 73 63 65
89 89 90 96 98 84 72 83 86 92 88 84 77 84 78 78 82 71 67 63 66 64
80 84 81 81 85 79 88 92 92 96 95 83 80 91 82 88 93 73 67 63 62 61
80 82 84 87 85 86 90 83 85 85 84 77 83 92 91 97 86 79 75 70 63 60
Wind_Direction_850mb
271 279 277 272 272 278 270 266 261 247 256 261 254 264 265 257 237 242 247 249 247 231
278 278 278 275 267 260 265 271 271 259 247 251 256 260 261 258 247 241 246 248 243 239
273 275 277 277 278 277 275 270 267 261 252 246 253 259 255 256 247 241 242 245 238 241
270 269 275 277 275 275 274 269 268 266 268 253 246 253 251 256 244 238 239 239 236 230
270 274 282 271 273 270 271 268 269 269 258 264 246 248 248 250 239 234 233 231 223 223
272 275 281 284 276 273 268 269 272 267 259 261 258 235 246 245 242 230 230 225 221 221
269 274 279 283 281 272 274 274 267 272 265 255 254 241 240 240 236 230 226 220 220 218
277 272 276 279 282 280 274 270 269 268 266 254 260 239 239 235 232 226 221 219 214 216
275 273 270 273 278 281 271 267 267 265 265 252 251 243 234 235 229 219 214 211 214 217
275 272 271 271 276 274 267 265 262 267 265 259 245 242 235 231 223 213 209 209 209 205
276 273 269 266 268 270 266 264 262 262 262 259 242 235 234 226 216 211 207 208 209 208
276 269 267 266 268 256 257 259 262 262 259 256 241 232 230 218 211 204 199 206 204 203
273 273 268 262 256 255 258 262 258 262 254 243 240 230 224 208 202 194 189 190 199 201
276 271 272 265 256 259 268 257 259 259 245 239 230 227 214 198 191 189 184 188 190 198